Flag for Sierra Leone Weather past 2 weeks in Freetown, Sierra Leone

Now
79 °F

Partly sunny.


Feels Like: 83 °F
Forecast: 77 / 81 °F
Wind: 5 mph from Southeast

Location: Conakry / Gbessia

Current Time: Sep 4, 2015 at 7:52:08 AM

Latest Report: Sep 4, 2015 at 7:00 AM


Visibility: N/A

Pressure: 29.89 "Hg

Humidity: 94%

Dew point: 77 °F

Location of FreetownLocation

Historic Weather in Freetown — Graph

°F

Freetown temperature yesterday

Maximum temperature yesterday: 79 °F (at 10:00 AM)
Minimum temperature yesterday: 75 °F (at 2:00 PM)
Average temperature yesterday: 78 °F

Past Weeks' High & Low Weather Summary

 TemperatureHumidityPressure
High86 °F (Aug 26, 2:00 PM)100% (Aug 20, 11:00 PM)30.01 "Hg (Aug 20, 11:00 PM)
Low73 °F (Aug 22, 7:00 AM)70% (Aug 25, 3:00 PM)29.83 "Hg (Aug 20, 6:00 PM)
Average79 °F92%29.91 "Hg
* Reported Aug 20 10:00 AM — Sep 4 4:00 AM, Freetown, Weather by CustomWeather, © 2015

Note: Actual official high and low records may vary slightly from our data, if they occured in-between our weather recording intervals... More about our weather records

Advertising

Freetown weather history for previous 24 hours

 ConditionsComfort  
Time TempWeatherWind HumidityBarometerVisibility
4:00 AM
Fri, Sep 4
75 °FPassing clouds.7 mph100%29.89 "HgN/A
3:00 AM75 °FPassing clouds.No wind100%29.92 "HgN/A
2:00 AM77 °FPassing clouds.5 mph94%29.92 "HgN/A
1:00 AM77 °FWarm.No wind94%29.95 "HgN/A
12:00 AM79 °FWarm.5 mph89%29.98 "HgN/A
11:00 PM
Thu, Sep 3
79 °FWarm.7 mph94%29.95 "HgN/A
10:00 PM79 °FWarm.9 mph94%29.95 "HgN/A
9:00 PM79 °FWarm.5 mph89%29.95 "HgN/A
8:00 PM77 °FLight rain. Passing clouds.5 mph94%29.92 "Hg5 mi
7:00 PM79 °FLight rain. Partly sunny.5 mph89%29.92 "Hg5 mi
6:00 PM79 °FPartly sunny.7 mph94%29.89 "HgN/A
4:00 PM79 °FPartly sunny.5 mph89%29.86 "HgN/A
3:00 PM79 °FThunderstorms. Partly sunny.2 mph89%29.89 "HgN/A
2:00 PM75 °FThunderstorms. Mostly cloudy.7 mph100%29.92 "Hg2 mi
1:00 PM79 °FPartly sunny.5 mph94%29.92 "HgN/A
12:00 PM79 °FPartly sunny.5 mph94%29.92 "HgN/A
11:00 AM79 °FLight rain. Mostly cloudy.2 mph94%29.95 "Hg5 mi
10:00 AM79 °FLight rain. Mostly cloudy.7 mph94%29.92 "Hg5 mi
9:00 AM77 °FLight rain. Mostly cloudy.5 mph100%29.92 "Hg5 mi
7:00 AM77 °FThunderstorms. Mostly cloudy.7 mph100%29.89 "Hg5 mi
Weather by CustomWeather, © 2015

See weather overviewHow to use our weather pages